����,���ϕ���(m/s),���ϕ���,�ő�u�ԕ���(m/s),�ő啗��������,�C��(��),���x(%),10���Ԉړ��ώZ�J��(mm),1���Ԉړ��ώZ�J��(mm),���J��(mm),�݌v�J��(mm)
2024-02-19T00:00:00+09:00,6.3,��쓌,13.8,��쓌,14.7,74.7,0,0,0,0
2024-02-19T00:01:00+09:00,6.2,��쓌,13.8,��쓌,14.8,74.4,0,0,0,0
2024-02-19T00:02:00+09:00,6.1,��쓌,13.8,��쓌,14.8,74,0,0,0,0
2024-02-19T00:03:00+09:00,6,��쓌,13.8,��쓌,14.8,73.5,0,0,0,0
2024-02-19T00:04:00+09:00,5.8,��쓌,11,��쓌,14.7,73.9,0,0,0,0
2024-02-19T00:05:00+09:00,5.6,��쓌,10.9,�쓌,14.7,73.7,0,0,0,0
2024-02-19T00:06:00+09:00,5.4,��쓌,10.9,�쓌,14.7,73,0,0,0,0
2024-02-19T00:07:00+09:00,5.9,��쓌,12.6,��,14.8,72.9,0,0,0,0
2024-02-19T00:08:00+09:00,6.3,��쓌,12.7,��쓌,14.9,71.2,0,0,0,0
2024-02-19T00:09:00+09:00,6.5,��쓌,12.7,��쓌,14.9,71.7,0,0,0,0
2024-02-19T00:10:00+09:00,6.5,��쓌,12.7,��쓌,14.9,71.9,0,0,0,0
2024-02-19T00:11:00+09:00,6.5,��쓌,12.7,��쓌,14.8,71.8,0,0,0,0
2024-02-19T00:12:00+09:00,6.5,��쓌,12.7,��쓌,14.8,72.7,0,0,0,0
2024-02-19T00:13:00+09:00,6.8,��쓌,12.7,��쓌,14.7,72.6,0,0,0,0
2024-02-19T00:14:00+09:00,6.7,��쓌,12.7,��쓌,14.8,72.5,0,0,0,0
2024-02-19T00:15:00+09:00,7.3,��쓌,14.2,�쓌,14.8,71.3,0,0,0,0
2024-02-19T00:16:00+09:00,7.6,��쓌,14.2,�쓌,15,70.2,0,0,0,0
2024-02-19T00:17:00+09:00,7.5,��쓌,14.2,�쓌,14.8,71.8,0,0,0,0
2024-02-19T00:18:00+09:00,7.5,��쓌,14.5,��쓌,14.8,71.3,0,0,0,0
2024-02-19T00:19:00+09:00,7.8,��쓌,15.6,��쓌,14.9,70.6,0,0,0,0
2024-02-19T00:20:00+09:00,7.7,��쓌,15.6,��쓌,14.9,69.5,0,0,0,0
2024-02-19T00:21:00+09:00,7.7,��쓌,15.6,��쓌,14.8,71.6,0,0,0,0
2024-02-19T00:22:00+09:00,8,��쓌,16.7,��쓌,14.7,72,0,0,0,0
2024-02-19T00:23:00+09:00,7.8,��쓌,16.7,��쓌,14.9,70,0,0,0,0
2024-02-19T00:24:00+09:00,7.8,��쓌,16.7,��쓌,14.8,70.7,0,0,0,0
2024-02-19T00:25:00+09:00,7.8,��쓌,16.7,��쓌,14.8,71.6,0,0,0,0
2024-02-19T00:26:00+09:00,7.8,��쓌,16.7,��쓌,14.7,70.5,0,0,0,0
2024-02-19T00:27:00+09:00,7.7,��쓌,16.7,��쓌,14.8,70.5,0,0,0,0
2024-02-19T00:28:00+09:00,7.8,��쓌,16.7,��쓌,14.7,71.1,0,0,0,0
2024-02-19T00:29:00+09:00,7.4,��쓌,16.7,��쓌,14.8,69.6,0,0,0,0
2024-02-19T00:30:00+09:00,7.5,��쓌,16.7,��쓌,14.8,70.2,0,0,0,0
2024-02-19T00:31:00+09:00,7.8,��쓌,16.7,��쓌,14.7,70.6,0,0,0,0
2024-02-19T00:32:00+09:00,7.8,��쓌,14,��쓌,14.8,69.5,0,0,0,0
2024-02-19T00:33:00+09:00,7.8,��쓌,14,��쓌,14.7,69.1,0,0,0,0
2024-02-19T00:34:00+09:00,8,��쓌,14,��쓌,14.7,70.3,0,0,0,0
2024-02-19T00:35:00+09:00,8,��쓌,14,��쓌,14.7,70.5,0,0,0,0
2024-02-19T00:36:00+09:00,8.1,��쓌,16.3,��쓌,14.7,70.1,0,0,0,0
2024-02-19T00:37:00+09:00,8.4,��쓌,16.3,��쓌,14.7,69.5,0,0,0,0
2024-02-19T00:38:00+09:00,8.3,��쓌,16.3,��쓌,14.8,69.2,0,0,0,0
2024-02-19T00:39:00+09:00,8.4,��쓌,16.3,��쓌,14.7,70.2,0,0,0,0
2024-02-19T00:40:00+09:00,8.6,��쓌,16.3,��쓌,14.6,70,0,0,0,0
2024-02-19T00:41:00+09:00,8.3,��쓌,16.3,��쓌,14.6,70,0,0,0,0
2024-02-19T00:42:00+09:00,7.8,��쓌,16.3,��쓌,14.5,70.4,0,0,0,0
2024-02-19T00:43:00+09:00,7.7,��쓌,16.3,��쓌,14.5,71,0,0,0,0
2024-02-19T00:44:00+09:00,7.6,��쓌,16.3,��쓌,14.5,71,0,0,0,0
2024-02-19T00:45:00+09:00,7.4,��쓌,16.3,��쓌,14.5,70.4,0,0,0,0
2024-02-19T00:46:00+09:00,7.5,��쓌,14,��쓌,14.5,70.3,0,0,0,0
2024-02-19T00:47:00+09:00,7,��,13.3,�쓌,14.5,69.2,0,0,0,0
2024-02-19T00:48:00+09:00,6.5,��,13.3,�쓌,14.6,69,0,0,0,0
2024-02-19T00:49:00+09:00,6.3,��,13.4,��쓌,14.6,69.2,0,0,0,0
2024-02-19T00:50:00+09:00,6.3,��,13.4,��쓌,14.6,69.1,0,0,0,0
2024-02-19T00:51:00+09:00,6.4,��,13.4,��쓌,14.6,69.5,0,0,0,0
2024-02-19T00:52:00+09:00,7,��쓌,15.2,�쓌,14.6,69.1,0,0,0,0
2024-02-19T00:53:00+09:00,7.2,��,15.2,�쓌,14.6,69.3,0,0,0,0
2024-02-19T00:54:00+09:00,6.9,��,15.2,�쓌,14.6,69.1,0,0,0,0
2024-02-19T00:55:00+09:00,6.9,��,15.2,�쓌,14.5,69.6,0,0,0,0
2024-02-19T00:56:00+09:00,6.6,��,15.2,�쓌,14.6,69,0,0,0,0
2024-02-19T00:57:00+09:00,6.9,��쓌,15.2,�쓌,14.6,69.3,0,0,0,0
2024-02-19T00:58:00+09:00,7.1,��쓌,15.2,�쓌,14.6,67.7,0,0,0,0
2024-02-19T00:59:00+09:00,7,��쓌,15.2,�쓌,14.6,68.7,0,0,0,0
2024-02-19T01:00:00+09:00,6.8,��쓌,15.2,�쓌,14.4,69.7,0,0,0,0
2024-02-19T01:01:00+09:00,6.5,��쓌,15.2,�쓌,14.5,69.2,0,0,0,0
2024-02-19T01:02:00+09:00,6.1,��쓌,13,��쓌,14.5,68.7,0,0,0,0
2024-02-19T01:03:00+09:00,6.1,��쓌,13,��쓌,14.5,69.1,0,0,0,0
2024-02-19T01:04:00+09:00,6.1,��쓌,13,��쓌,14.4,69.5,0,0,0,0
2024-02-19T01:05:00+09:00,6.1,��쓌,11.8,��쓌,14.3,69.3,0,0,0,0
2024-02-19T01:06:00+09:00,6.3,��쓌,12.7,��쓌,14.5,68.3,0,0,0,0
2024-02-19T01:07:00+09:00,5.8,��쓌,12.7,��쓌,14.5,68.2,0,0,0,0
2024-02-19T01:08:00+09:00,5.8,��쓌,12.7,��쓌,14.5,68.6,0,0,0,0
2024-02-19T01:09:00+09:00,5.7,��쓌,12.7,��쓌,14.4,68.6,0,0,0,0
2024-02-19T01:10:00+09:00,5.8,��쓌,12.7,��쓌,14.5,68.4,0,0,0,0
2024-02-19T01:11:00+09:00,6,��쓌,12.7,��쓌,14.5,68.5,0,0,0,0
2024-02-19T01:12:00+09:00,6.3,��쓌,13.3,��쓌,14.6,67.7,0,0,0,0
2024-02-19T01:13:00+09:00,6.5,��쓌,13.3,��쓌,14.6,67.5,0,0,0,0
2024-02-19T01:14:00+09:00,6.8,��쓌,13.3,��쓌,14.5,68.3,0,0,0,0
2024-02-19T01:15:00+09:00,6.6,��쓌,13.3,��쓌,14.4,68.5,0,0,0,0
2024-02-19T01:16:00+09:00,6.5,��쓌,13.3,��쓌,14.4,68.2,0,0,0,0
2024-02-19T01:17:00+09:00,7,��쓌,13.3,��쓌,14.5,68,0,0,0,0
2024-02-19T01:18:00+09:00,7.4,��쓌,13.3,��쓌,14.6,67.1,0,0,0,0
2024-02-19T01:19:00+09:00,7.5,��쓌,13.3,��쓌,14.6,66.9,0,0,0,0
2024-02-19T01:20:00+09:00,7.4,��쓌,13.3,��쓌,14.5,67.6,0,0,0,0
2024-02-19T01:21:00+09:00,7,��쓌,13.3,��쓌,14.4,68,0,0,0,0
2024-02-19T01:22:00+09:00,6.7,��쓌,13.3,��,14.4,67.6,0,0,0,0
2024-02-19T01:23:00+09:00,6.4,��쓌,14.2,��쓌,14.5,66.9,0,0,0,0
2024-02-19T01:24:00+09:00,6.6,��쓌,16.6,��쓌,14.7,65.7,0,0,0,0
2024-02-19T01:25:00+09:00,6.5,��쓌,16.6,��쓌,14.7,65.3,0,0,0,0
2024-02-19T01:26:00+09:00,6.6,��쓌,16.6,��쓌,14.7,65.7,0,0,0,0
2024-02-19T01:27:00+09:00,6.7,��쓌,16.6,��쓌,14.7,65.5,0,0,0,0
2024-02-19T01:28:00+09:00,6.8,��쓌,16.6,��쓌,14.7,65.8,0,0,0,0
2024-02-19T01:29:00+09:00,6.5,��쓌,16.6,��쓌,14.7,64.8,0,0,0,0
2024-02-19T01:30:00+09:00,6.3,��쓌,16.6,��쓌,14.7,64.6,0,0,0,0
2024-02-19T01:31:00+09:00,6.6,��쓌,16.6,��쓌,14.7,64.8,0,0,0,0
2024-02-19T01:32:00+09:00,6.8,��쓌,16.6,��쓌,14.7,65.3,0,0,0,0
2024-02-19T01:33:00+09:00,6.8,��쓌,16.6,��쓌,14.6,65.2,0,0,0,0
2024-02-19T01:34:00+09:00,6.7,��쓌,13.7,��쓌,14.6,64.6,0,0,0,0
2024-02-19T01:35:00+09:00,6.7,��쓌,13.7,��쓌,14.7,63.9,0,0,0,0
2024-02-19T01:36:00+09:00,6.4,��쓌,13.7,��쓌,14.7,63.8,0,0,0,0
2024-02-19T01:37:00+09:00,6.3,��쓌,13.7,��쓌,14.6,64.3,0,0,0,0
2024-02-19T01:38:00+09:00,6,��,11.8,��쓌,14.7,63.1,0,0,0,0
2024-02-19T01:39:00+09:00,5.9,��,11.8,��쓌,14.8,63,0,0,0,0
2024-02-19T01:40:00+09:00,6,��쓌,11.8,��쓌,14.7,62.9,0,0,0,0
2024-02-19T01:41:00+09:00,5.9,��,11.8,��쓌,14.7,62.3,0,0,0,0
2024-02-19T01:42:00+09:00,5.7,��,11.8,��쓌,14.7,63,0,0,0,0
2024-02-19T01:43:00+09:00,5.4,��쓌,11.8,��쓌,14.7,61.9,0,0,0,0
2024-02-19T01:44:00+09:00,5.5,��쓌,11.9,�쓌,14.8,61.7,0,0,0,0
2024-02-19T01:45:00+09:00,5.6,��쓌,11.9,�쓌,14.7,61.8,0,0,0,0
2024-02-19T01:46:00+09:00,5.5,��쓌,11.9,�쓌,14.7,61.4,0,0,0,0
2024-02-19T01:47:00+09:00,4.9,��,11.9,�쓌,14.6,61.8,0,0,0,0
2024-02-19T01:48:00+09:00,4.6,��,11.9,�쓌,14.6,62.2,0,0,0,0
2024-02-19T01:49:00+09:00,5.3,��쓌,13,��쓌,14.8,60.5,0,0,0,0
2024-02-19T01:50:00+09:00,5.5,��,13,��쓌,14.9,60.1,0,0,0,0
2024-02-19T01:51:00+09:00,5.4,��,13,��쓌,14.8,60.6,0,0,0,0
2024-02-19T01:52:00+09:00,5.5,��쓌,13,��쓌,14.8,60.7,0,0,0,0
2024-02-19T01:53:00+09:00,5.9,��쓌,13,��쓌,14.8,60.6,0,0,0,0
2024-02-19T01:54:00+09:00,5.6,��,13,��쓌,14.8,60.8,0,0,0,0
2024-02-19T01:55:00+09:00,5.7,��,13,��쓌,14.8,61.4,0,0,0,0
2024-02-19T01:56:00+09:00,6,��,13,��쓌,14.7,61.6,0,0,0,0
2024-02-19T01:57:00+09:00,6.7,��쓌,13.1,��쓌,14.7,61.9,0,0,0,0
2024-02-19T01:58:00+09:00,7.1,��쓌,13.1,��쓌,14.8,61.2,0,0,0,0
2024-02-19T01:59:00+09:00,6.7,��쓌,13.1,��쓌,14.9,61,0,0,0,0
2024-02-19T02:00:00+09:00,6.9,��쓌,13.2,��쓌,14.8,61.3,0,0,0,0
2024-02-19T02:01:00+09:00,7.2,��쓌,13.2,��쓌,14.8,61.5,0,0,0,0
2024-02-19T02:02:00+09:00,7,��,13.2,��쓌,14.8,61.7,0,0,0,0
2024-02-19T02:03:00+09:00,6.7,��쓌,13.2,��쓌,14.6,62.2,0,0,0,0
2024-02-19T02:04:00+09:00,7,��쓌,13.2,��쓌,14.7,62.1,0,0,0,0
2024-02-19T02:05:00+09:00,6.8,��쓌,13.2,��쓌,14.8,61.7,0,0,0,0
2024-02-19T02:06:00+09:00,6.6,��,13.2,��쓌,14.7,61.9,0,0,0,0
2024-02-19T02:07:00+09:00,6.5,��쓌,13.2,��쓌,14.8,61.3,0,0,0,0
2024-02-19T02:08:00+09:00,6.3,��쓌,13.2,��쓌,14.7,61.5,0,0,0,0
2024-02-19T02:09:00+09:00,6.3,��쓌,13.2,��쓌,14.7,61.1,0,0,0,0
2024-02-19T02:10:00+09:00,5.7,��쓌,13.2,��쓌,14.8,60.8,0,0,0,0
2024-02-19T02:11:00+09:00,5.5,��쓌,13.2,��쓌,14.7,61.2,0,0,0,0
2024-02-19T02:12:00+09:00,5.3,��쓌,13.2,��쓌,14.7,61.3,0,0,0,0
2024-02-19T02:13:00+09:00,5.3,��쓌,13.2,��쓌,14.6,61.6,0,0,0,0
2024-02-19T02:14:00+09:00,4.7,��,13.2,��쓌,14.6,61.4,0,0,0,0
2024-02-19T02:15:00+09:00,4.6,��,13.2,��쓌,14.8,60.7,0,0,0,0
2024-02-19T02:16:00+09:00,4.3,��,10.8,��쓌,14.9,60.7,0,0,0,0
2024-02-19T02:17:00+09:00,3.9,��,10.8,��쓌,14.8,60.6,0,0,0,0
2024-02-19T02:18:00+09:00,3.6,��,8.2,��쓌,14.7,60.8,0,0,0,0
2024-02-19T02:19:00+09:00,3.3,��,8.2,��쓌,14.8,60.5,0,0,0,0
2024-02-19T02:20:00+09:00,3.2,��,8.2,��쓌,14.8,60.4,0,0,0,0
2024-02-19T02:21:00+09:00,3.1,��,8.2,��쓌,14.7,60.6,0,0,0,0
2024-02-19T02:22:00+09:00,3.4,��,8.8,��쓌,14.7,60.7,0,0,0,0
2024-02-19T02:23:00+09:00,3.4,��쓌,8.8,��쓌,14.8,60.4,0,0,0,0
2024-02-19T02:24:00+09:00,3.4,��쓌,8.8,��쓌,14.9,59.7,0,0,0,0
2024-02-19T02:25:00+09:00,3.4,��쓌,9.3,�쓌,14.8,60.1,0,0,0,0
2024-02-19T02:26:00+09:00,3.9,��쓌,9.8,��쓌,14.7,60.6,0,0,0,0
2024-02-19T02:27:00+09:00,4.4,��쓌,12,��쓌,14.7,60.9,0,0,0,0
2024-02-19T02:28:00+09:00,4.4,��쓌,12,��쓌,14.7,61,0,0,0,0
2024-02-19T02:29:00+09:00,4.8,��쓌,12,��쓌,14.7,61,0,0,0,0
2024-02-19T02:30:00+09:00,5.2,��쓌,12,��쓌,14.7,60.6,0,0,0,0
2024-02-19T02:31:00+09:00,5.4,��쓌,12,��쓌,14.8,60.3,0,0,0,0
2024-02-19T02:32:00+09:00,5.4,��쓌,12,��쓌,14.7,60.6,0,0,0,0
2024-02-19T02:33:00+09:00,5.8,�쓌,12.2,��쓌,14.6,61.1,0,0,0,0
2024-02-19T02:34:00+09:00,6.2,��쓌,12.2,��쓌,14.6,61,0,0,0,0
2024-02-19T02:35:00+09:00,6.4,��쓌,12.2,��쓌,14.8,60.7,0,0,0,0
2024-02-19T02:36:00+09:00,6.6,��쓌,12.2,��쓌,14.8,60.7,0,0,0,0
2024-02-19T02:37:00+09:00,6.4,��쓌,12.2,��쓌,14.8,60.6,0,0,0,0
2024-02-19T02:38:00+09:00,6.5,��쓌,12.2,��쓌,14.8,60.9,0,0,0,0
2024-02-19T02:39:00+09:00,6.6,��쓌,12.2,��쓌,14.7,60.9,0,0,0,0
2024-02-19T02:40:00+09:00,6.6,��쓌,12.2,��쓌,14.8,60.4,0,0,0,0
2024-02-19T02:41:00+09:00,6.7,��쓌,12.2,��쓌,14.8,60.6,0,0,0,0
2024-02-19T02:42:00+09:00,6.7,��쓌,12.2,��쓌,14.8,60.6,0,0,0,0
2024-02-19T02:43:00+09:00,6.5,��쓌,12.1,�쓌,14.8,60.6,0,0,0,0
2024-02-19T02:44:00+09:00,6.5,��쓌,12.1,�쓌,14.9,60.5,0,0,0,0
2024-02-19T02:45:00+09:00,6.4,��쓌,12.1,�쓌,14.8,60.7,0,0,0,0
2024-02-19T02:46:00+09:00,6.4,��쓌,13.4,��쓌,14.7,61,0,0,0,0
2024-02-19T02:47:00+09:00,6.4,��쓌,13.4,��쓌,14.8,60.8,0,0,0,0
2024-02-19T02:48:00+09:00,6.5,��쓌,13.4,��쓌,14.9,60.6,0,0,0,0
2024-02-19T02:49:00+09:00,6.6,��쓌,13.4,��쓌,14.9,60.5,0,0,0,0
2024-02-19T02:50:00+09:00,6.4,��쓌,13.4,��쓌,14.9,60.5,0,0,0,0
2024-02-19T02:51:00+09:00,6.2,��쓌,13.4,��쓌,14.8,60.6,0,0,0,0
2024-02-19T02:52:00+09:00,6.2,��쓌,13.4,��쓌,14.8,60.5,0,0,0,0
2024-02-19T02:53:00+09:00,6.4,��쓌,13.4,��쓌,14.9,60.7,0,0,0,0
2024-02-19T02:54:00+09:00,6.4,��쓌,13.4,��쓌,14.9,60.4,0,0,0,0
2024-02-19T02:55:00+09:00,6.2,��쓌,13.4,��쓌,14.9,60.4,0,0,0,0
2024-02-19T02:56:00+09:00,5.6,��쓌,12.5,��쓌,14.8,60.3,0,0,0,0
2024-02-19T02:57:00+09:00,5.4,��쓌,12.5,��쓌,14.8,60.4,0,0,0,0
2024-02-19T02:58:00+09:00,5.2,��쓌,12.3,�쓌,14.8,60.3,0,0,0,0
2024-02-19T02:59:00+09:00,5,��쓌,12.1,��쓌,14.8,60.4,0,0,0,0
2024-02-19T03:00:00+09:00,5.3,��쓌,12.1,��쓌,14.8,60.6,0,0,0,0
2024-02-19T03:01:00+09:00,5.3,��쓌,12.1,��쓌,14.7,60.6,0,0,0,0
2024-02-19T03:02:00+09:00,5.1,��쓌,12.1,��쓌,14.7,60.6,0,0,0,0
2024-02-19T03:03:00+09:00,4.5,��쓌,11.3,�쓌,14.9,60.2,0,0,0,0
2024-02-19T03:04:00+09:00,4.3,��쓌,11.3,�쓌,14.8,60.3,0,0,0,0
2024-02-19T03:05:00+09:00,4.3,�쓌,11.3,�쓌,14.8,60.5,0,0,0,0
2024-02-19T03:06:00+09:00,4.8,�쓌,11.3,�쓌,14.9,60.1,0,0,0,0
2024-02-19T03:07:00+09:00,4.8,�쓌,11.3,�쓌,14.9,60.2,0,0,0,0
2024-02-19T03:08:00+09:00,4.6,�쓌,11.3,�쓌,14.7,60.4,0,0,0,0
2024-02-19T03:09:00+09:00,4.5,�쓌,11.3,�쓌,14.7,60.6,0,0,0,0
2024-02-19T03:10:00+09:00,4.3,�쓌,10.5,��쓌,14.7,60.4,0,0,0,0
2024-02-19T03:11:00+09:00,4,�쓌,10.5,��쓌,14.8,60.3,0,0,0,0
2024-02-19T03:12:00+09:00,3.5,�쓌,10.5,��쓌,14.7,60.4,0,0,0,0
2024-02-19T03:13:00+09:00,3.6,�쓌,10.5,��쓌,14.7,60.6,0,0,0,0
2024-02-19T03:14:00+09:00,3.9,�쓌,10.8,��쓌,14.7,60.5,0,0,0,0
2024-02-19T03:15:00+09:00,3.8,�쓌,10.8,��쓌,14.7,60.2,0,0,0,0
2024-02-19T03:16:00+09:00,3.6,�쓌,10.8,��쓌,14.8,60.2,0,0,0,0
2024-02-19T03:17:00+09:00,3.7,�쓌,10.8,��쓌,14.7,60.2,0,0,0,0
2024-02-19T03:18:00+09:00,3.9,��쓌,10.8,��쓌,14.9,59.9,0,0,0,0
2024-02-19T03:19:00+09:00,3.8,��쓌,10.8,��쓌,14.8,60,0,0,0,0
2024-02-19T03:20:00+09:00,4.1,��쓌,10.8,��쓌,14.8,60,0,0,0,0
2024-02-19T03:21:00+09:00,4.5,��쓌,12.2,��쓌,14.9,59.4,0,0,0,0
2024-02-19T03:22:00+09:00,4.9,��쓌,12.2,��쓌,14.9,59.5,0,0,0,0
2024-02-19T03:23:00+09:00,5.2,��쓌,12.2,��쓌,14.9,59.6,0,0,0,0
2024-02-19T03:24:00+09:00,5.3,��쓌,12.2,��쓌,14.8,59.6,0,0,0,0
2024-02-19T03:25:00+09:00,5.7,��쓌,12.2,��쓌,14.9,59.5,0,0,0,0
2024-02-19T03:26:00+09:00,5.7,��쓌,12.2,��쓌,14.9,59.5,0,0,0,0
2024-02-19T03:27:00+09:00,5.6,��쓌,12.2,��쓌,14.8,59.6,0,0,0,0
2024-02-19T03:28:00+09:00,5.5,��쓌,12.2,��쓌,14.9,59.5,0,0,0,0
2024-02-19T03:29:00+09:00,5.4,��쓌,12.2,��쓌,14.9,59.5,0,0,0,0
2024-02-19T03:30:00+09:00,4.9,��쓌,12.2,��쓌,14.7,59.8,0,0,0,0
2024-02-19T03:31:00+09:00,4.7,��쓌,11.3,�쓌,14.7,59.9,0,0,0,0
2024-02-19T03:32:00+09:00,4.7,��쓌,11.3,�쓌,14.8,59.9,0,0,0,0
2024-02-19T03:33:00+09:00,5,��쓌,11.3,�쓌,14.9,59.7,0,0,0,0
2024-02-19T03:34:00+09:00,4.9,��쓌,10.9,��쓌,15,59.4,0,0,0,0
2024-02-19T03:35:00+09:00,5,��쓌,13.4,��쓌,15.1,58.9,0,0,0,0
2024-02-19T03:36:00+09:00,5.2,��쓌,13.4,��쓌,15.1,58.6,0,0,0,0
2024-02-19T03:37:00+09:00,5.2,��쓌,13.4,��쓌,15.1,58.5,0,0,0,0
2024-02-19T03:38:00+09:00,5.5,��쓌,13.4,��쓌,15.1,58.3,0,0,0,0
2024-02-19T03:39:00+09:00,5.9,�쓌,13.4,��쓌,15.1,58.3,0,0,0,0
2024-02-19T03:40:00+09:00,6.4,��쓌,13.4,��쓌,15.1,58.3,0,0,0,0
2024-02-19T03:41:00+09:00,6.6,��쓌,13.4,��쓌,15.1,58.3,0,0,0,0
2024-02-19T03:42:00+09:00,6.6,��쓌,13.4,��쓌,15.1,57.9,0,0,0,0
2024-02-19T03:43:00+09:00,6.4,��쓌,13.4,��쓌,15.2,57.7,0,0,0,0
2024-02-19T03:44:00+09:00,6.4,��쓌,13.4,��쓌,15.1,57.8,0,0,0,0
2024-02-19T03:45:00+09:00,6.2,��쓌,13.6,��쓌,15.2,57.6,0,0,0,0
2024-02-19T03:46:00+09:00,6.1,��쓌,13.6,��쓌,15.3,57.2,0,0,0,0
2024-02-19T03:47:00+09:00,6.2,��쓌,13.6,��쓌,15.3,57.3,0,0,0,0
2024-02-19T03:48:00+09:00,6,��쓌,13.6,��쓌,15.1,57.8,0,0,0,0
2024-02-19T03:49:00+09:00,6,��쓌,13.6,��쓌,15.1,57.7,0,0,0,0
2024-02-19T03:50:00+09:00,6,��쓌,13.6,��쓌,15.2,57.4,0,0,0,0
2024-02-19T03:51:00+09:00,5.9,�쓌,13.6,��쓌,15.1,57.8,0,0,0,0
2024-02-19T03:52:00+09:00,5.9,�쓌,13.6,��쓌,15,58.1,0,0,0,0
2024-02-19T03:53:00+09:00,5.8,�쓌,13.6,��쓌,15,57.9,0,0,0,0
2024-02-19T03:54:00+09:00,5.7,�쓌,13.6,��쓌,15.1,58,0,0,0,0
2024-02-19T03:55:00+09:00,5.5,�쓌,10.3,�쓌,15.2,57.4,0,0,0,0
2024-02-19T03:56:00+09:00,5.6,�쓌,12.2,��쓌,15.3,57.2,0,0,0,0
2024-02-19T03:57:00+09:00,5.8,�쓌,12.2,��쓌,15.3,57,0,0,0,0
2024-02-19T03:58:00+09:00,6,�쓌,13.5,�쓌,15.3,57,0,0,0,0
2024-02-19T03:59:00+09:00,6,�쓌,13.5,�쓌,15.3,56.8,0,0,0,0
2024-02-19T04:00:00+09:00,5.9,�쓌,13.5,�쓌,15.3,56.8,0,0,0,0
2024-02-19T04:01:00+09:00,5.8,�쓌,13.5,�쓌,15.3,56.8,0,0,0,0
2024-02-19T04:02:00+09:00,5.5,�쓌,13.5,�쓌,15.2,56.9,0,0,0,0
2024-02-19T04:03:00+09:00,5.6,��쓌,13.5,�쓌,15.2,57,0,0,0,0
2024-02-19T04:04:00+09:00,5.7,��쓌,13.5,�쓌,15.1,57.3,0,0,0,0
2024-02-19T04:05:00+09:00,5.6,�쓌,13.5,�쓌,15.2,57.2,0,0,0,0
2024-02-19T04:06:00+09:00,5.8,��쓌,15.2,��,15.2,57.2,0,0,0,0
2024-02-19T04:07:00+09:00,5.8,��쓌,15.2,��,15.4,56.6,0,0,0,0
2024-02-19T04:08:00+09:00,5.5,��쓌,15.2,��,15.4,56.5,0,0,0,0
2024-02-19T04:09:00+09:00,5.3,��쓌,15.2,��,15.4,56.5,0,0,0,0
2024-02-19T04:10:00+09:00,4.9,��쓌,15.2,��,15.3,56.7,0,0,0,0
2024-02-19T04:11:00+09:00,5.2,��쓌,15.2,��,15.3,56.7,0,0,0,0
2024-02-19T04:12:00+09:00,5.5,��쓌,15.2,��,15.3,56.7,0,0,0,0
2024-02-19T04:13:00+09:00,5.5,��쓌,15.2,��,15.3,56.7,0,0,0,0
2024-02-19T04:14:00+09:00,5.4,��쓌,15.2,��,15.4,56.6,0,0,0,0
2024-02-19T04:15:00+09:00,5.4,��,15.2,��,15.4,56.6,0,0,0,0
2024-02-19T04:16:00+09:00,5.1,��,13,��,15.3,56.9,0,0,0,0
2024-02-19T04:17:00+09:00,4.6,��쓌,11.7,�쓌,15.2,57.3,0,0,0,0
2024-02-19T04:18:00+09:00,4.6,��쓌,11.7,�쓌,15.1,57.4,0,0,0,0
2024-02-19T04:19:00+09:00,4.5,��쓌,11.7,�쓌,15.3,57.4,0,0,0,0
2024-02-19T04:20:00+09:00,4.7,��쓌,11.7,�쓌,15.3,57.3,0,0,0,0
2024-02-19T04:21:00+09:00,4.8,��쓌,11.7,�쓌,15.3,57.4,0,0,0,0
2024-02-19T04:22:00+09:00,4.6,��쓌,11.8,��쓌,15.4,57.2,0,0,0,0
2024-02-19T04:23:00+09:00,4.4,��쓌,11.8,��쓌,15.5,57,0,0,0,0
2024-02-19T04:24:00+09:00,4.5,��쓌,11.8,��쓌,15.4,57.1,0,0,0,0
2024-02-19T04:25:00+09:00,4.6,��쓌,11.8,��쓌,15.5,57.3,0,0,0,0
2024-02-19T04:26:00+09:00,4.7,��쓌,11.8,��쓌,15.4,57.3,0,0,0,0
2024-02-19T04:27:00+09:00,4.9,��쓌,11.8,��쓌,15.5,57.1,0,0,0,0
2024-02-19T04:28:00+09:00,5.3,��쓌,18.9,��쓌,15.5,57.1,0,0,0,0
2024-02-19T04:29:00+09:00,6,��쓌,18.9,��쓌,15.5,57.2,0,0,0,0
2024-02-19T04:30:00+09:00,6.2,��쓌,18.9,��쓌,15.6,57.2,0,0,0,0
2024-02-19T04:31:00+09:00,5.7,��쓌,18.9,��쓌,15.5,57.1,0,0,0,0
2024-02-19T04:32:00+09:00,5.5,��쓌,18.9,��쓌,15.5,57.3,0,0,0,0
2024-02-19T04:33:00+09:00,5.7,��쓌,18.9,��쓌,15.4,57.5,0,0,0,0
2024-02-19T04:34:00+09:00,5.6,��쓌,18.9,��쓌,15.5,57.5,0,0,0,0
2024-02-19T04:35:00+09:00,5.5,��쓌,18.9,��쓌,15.5,57.5,0,0,0,0
2024-02-19T04:36:00+09:00,5.2,��,18.9,��쓌,15.5,57.5,0,0,0,0
2024-02-19T04:37:00+09:00,5.1,��,18.9,��쓌,15.4,57.7,0,0,0,0
2024-02-19T04:38:00+09:00,4.6,��,15.7,��쓌,15.3,57.6,0,0,0,0
2024-02-19T04:39:00+09:00,3.8,��,10.6,��,15.3,57.9,0,0,0,0
2024-02-19T04:40:00+09:00,3.6,��,9,��,15.1,58.5,0,0,0,0
2024-02-19T04:41:00+09:00,4,��쓌,11.9,��쓌,15.3,58.7,0,0,0,0
2024-02-19T04:42:00+09:00,4.5,��쓌,13.3,�쓌,15.5,58.9,0,0,0,0
2024-02-19T04:43:00+09:00,4.8,��쓌,13.3,�쓌,15.5,58.7,0,0,0,0
2024-02-19T04:44:00+09:00,5.1,��쓌,13.3,�쓌,15.5,58.6,0,0,0,0
2024-02-19T04:45:00+09:00,5.2,��쓌,13.3,�쓌,15.5,58.4,0,0,0,0
2024-02-19T04:46:00+09:00,5.7,��쓌,13.3,�쓌,15.4,58.5,0,0,0,0
2024-02-19T04:47:00+09:00,6,��쓌,13.3,�쓌,15.4,58.6,0,0,0,0
2024-02-19T04:48:00+09:00,6.4,��쓌,13.3,�쓌,15.5,58.9,0,0,0,0
2024-02-19T04:49:00+09:00,6.6,��쓌,13.3,�쓌,15.4,59,0,0,0,0
2024-02-19T04:50:00+09:00,6.4,��쓌,13.3,�쓌,15.4,59.2,0,0,0,0
2024-02-19T04:51:00+09:00,6.5,��쓌,13.3,�쓌,15.4,59.1,0,0,0,0
2024-02-19T04:52:00+09:00,6.6,��쓌,16.4,��쓌,15.5,59.3,0,0,0,0
2024-02-19T04:53:00+09:00,6.7,��쓌,16.4,��쓌,15.5,59.1,0,0,0,0
2024-02-19T04:54:00+09:00,6.3,��쓌,16.4,��쓌,15.6,59.1,0,0,0,0
2024-02-19T04:55:00+09:00,6.1,��쓌,16.4,��쓌,15.5,59,0,0,0,0
2024-02-19T04:56:00+09:00,6,��쓌,16.4,��쓌,15.5,59.4,0,0,0,0
2024-02-19T04:57:00+09:00,5.8,��쓌,16.4,��쓌,15.5,59.2,0,0,0,0
2024-02-19T04:58:00+09:00,5.6,��쓌,16.4,��쓌,15.4,59.6,0,0,0,0
2024-02-19T04:59:00+09:00,5.8,��쓌,16.4,��쓌,15.5,59.6,0,0,0,0
2024-02-19T05:00:00+09:00,6.5,��쓌,16.4,��쓌,15.5,59.7,0,0,0,0
2024-02-19T05:01:00+09:00,6.6,��쓌,16.4,��쓌,15.6,59.7,0,0,0,0
2024-02-19T05:02:00+09:00,6.2,��쓌,14.5,��,15.5,59.6,0,0,0,0
2024-02-19T05:03:00+09:00,5.7,��쓌,14.3,�쓌,15.5,59.6,0,0,0,0
2024-02-19T05:04:00+09:00,6.1,��쓌,14.3,�쓌,15.4,59.9,0,0,0,0
2024-02-19T05:05:00+09:00,6.1,��쓌,14.3,�쓌,15.5,60,0,0,0,0
2024-02-19T05:06:00+09:00,6,��쓌,14.3,�쓌,15.5,60.4,0,0,0,0
2024-02-19T05:07:00+09:00,5.7,��쓌,14.3,�쓌,15.6,60.3,0,0,0,0
2024-02-19T05:08:00+09:00,5.4,��쓌,14.3,�쓌,15.6,60.2,0,0,0,0
2024-02-19T05:09:00+09:00,4.9,��쓌,14.3,�쓌,15.5,60.5,0,0,0,0
2024-02-19T05:10:00+09:00,4.4,��쓌,11.2,��쓌,15.5,60.7,0,0,0,0
2024-02-19T05:11:00+09:00,4.2,��쓌,10.6,�쓌,15.6,60.8,0,0,0,0
2024-02-19T05:12:00+09:00,4.3,��쓌,10.6,�쓌,15.6,60.8,0,0,0,0
2024-02-19T05:13:00+09:00,4.3,��쓌,10.6,�쓌,15.6,60.9,0,0,0,0
2024-02-19T05:14:00+09:00,4.4,��쓌,11.2,��,15.6,60.9,0,0,0,0
2024-02-19T05:15:00+09:00,4.6,��쓌,11.2,��,15.5,61.2,0,0,0,0
2024-02-19T05:16:00+09:00,4.6,��쓌,11.2,��,15.6,61,0,0,0,0
2024-02-19T05:17:00+09:00,4.9,��쓌,11.2,��,15.6,61,0,0,0,0
2024-02-19T05:18:00+09:00,5.2,��쓌,11.2,��,15.7,61.2,0,0,0,0
2024-02-19T05:19:00+09:00,5.5,��쓌,11.2,��,15.7,61.4,0,0,0,0
2024-02-19T05:20:00+09:00,5.7,��쓌,11.2,��,15.7,61.7,0,0,0,0
2024-02-19T05:21:00+09:00,5.8,��쓌,11.2,��,15.7,61.6,0,0,0,0
2024-02-19T05:22:00+09:00,5.5,��쓌,11.2,��,15.7,61.5,0,0,0,0
2024-02-19T05:23:00+09:00,5.4,��쓌,11.2,��,15.7,61.5,0,0,0,0
2024-02-19T05:24:00+09:00,5.2,��쓌,11.1,�쓌,15.7,61.5,0,0,0,0
2024-02-19T05:25:00+09:00,4.9,��쓌,11.1,�쓌,15.7,61.6,0,0,0,0
2024-02-19T05:26:00+09:00,4.9,��쓌,11.1,�쓌,15.7,61.7,0,0,0,0
2024-02-19T05:27:00+09:00,5.1,��쓌,11.1,�쓌,15.7,61.5,0,0,0,0
2024-02-19T05:28:00+09:00,4.9,��,11.1,�쓌,15.6,61.9,0,0,0,0
2024-02-19T05:29:00+09:00,4.8,��,10.8,��쓌,15.7,62.3,0,0,0,0
2024-02-19T05:30:00+09:00,4.4,��,10.8,��쓌,15.7,62.1,0,0,0,0
2024-02-19T05:31:00+09:00,4,��,10.8,��쓌,15.7,62.2,0,0,0,0
2024-02-19T05:32:00+09:00,4.3,��,13,��쓌,15.8,62.1,0,0,0,0
2024-02-19T05:33:00+09:00,4.6,��,13,��쓌,15.8,62.1,0,0,0,0
2024-02-19T05:34:00+09:00,4.8,��,13,��쓌,15.8,62,0,0,0,0
2024-02-19T05:35:00+09:00,4.7,��,13,��쓌,15.7,62.1,0,0,0,0
2024-02-19T05:36:00+09:00,4.8,��,13,��쓌,15.8,62.1,0,0,0,0
2024-02-19T05:37:00+09:00,4.8,��,13,��쓌,15.8,62.2,0,0,0,0
2024-02-19T05:38:00+09:00,4.9,��,13,��쓌,15.8,62.1,0,0,0,0
2024-02-19T05:39:00+09:00,4.6,��,13,��쓌,15.8,62.3,0,0,0,0
2024-02-19T05:40:00+09:00,5.1,��,13,��쓌,15.7,62.2,0,0,0,0
2024-02-19T05:41:00+09:00,5.2,��,13,��쓌,15.9,62.3,0,0,0,0
2024-02-19T05:42:00+09:00,5.5,��,13.3,��,15.8,62.6,0,0,0,0
2024-02-19T05:43:00+09:00,5.4,��,13.3,��,15.9,62.2,0,0,0,0
2024-02-19T05:44:00+09:00,5.2,��,13.3,��,15.7,62.4,0,0,0,0
2024-02-19T05:45:00+09:00,5.3,��,13.3,��,15.7,62.4,0,0,0,0
2024-02-19T05:46:00+09:00,5.2,��,13.3,��,15.6,62.6,0,0,0,0
2024-02-19T05:47:00+09:00,5,��,13.3,��,15.7,63.1,0,0,0,0
2024-02-19T05:48:00+09:00,5.2,��,13.3,��,15.7,62.5,0,0,0,0
2024-02-19T05:49:00+09:00,5.9,��,13.3,��,15.7,63,0,0,0,0
2024-02-19T05:50:00+09:00,6,��,13.3,��,15.8,63.4,0,0,0,0
2024-02-19T05:51:00+09:00,6,��,13.3,��,15.8,63.1,0,0,0,0
2024-02-19T05:52:00+09:00,5.6,��,12.9,��쓌,15.7,63.3,0,0,0,0
2024-02-19T05:53:00+09:00,5.5,��,12.9,��쓌,15.6,63.5,0,0,0,0
2024-02-19T05:54:00+09:00,5.8,��,12.9,��쓌,15.7,63.3,0,0,0,0
2024-02-19T05:55:00+09:00,6.1,��,12.9,��쓌,15.7,63.1,0,0,0,0
2024-02-19T05:56:00+09:00,6.2,��,12.9,��쓌,15.7,63.5,0,0,0,0
2024-02-19T05:57:00+09:00,6.3,��,12.9,��쓌,15.6,63.5,0,0,0,0
2024-02-19T05:58:00+09:00,6,��,12.9,��쓌,15.6,63.6,0,0,0,0
2024-02-19T05:59:00+09:00,5.8,��,12.9,��쓌,15.6,63.6,0,0,0,0
2024-02-19T06:00:00+09:00,5.8,��,12.3,��쓌,15.7,63.9,0,0,0,0
2024-02-19T06:01:00+09:00,6.3,��,14.7,��쓌,15.7,63.7,0,0,0,0
2024-02-19T06:02:00+09:00,6.9,��쓌,14.8,��쓌,15.7,64,0,0,0,0
2024-02-19T06:03:00+09:00,6.9,��쓌,14.8,��쓌,15.7,63.8,0,0,0,0
2024-02-19T06:04:00+09:00,7.1,��쓌,15.4,��쓌,15.8,64.1,0,0,0,0
2024-02-19T06:05:00+09:00,7.3,��쓌,15.4,��쓌,15.8,64,0,0,0,0
2024-02-19T06:06:00+09:00,7.4,��,15.4,��쓌,15.8,63.8,0,0,0,0
2024-02-19T06:07:00+09:00,7.6,��쓌,15.4,��쓌,15.7,63.9,0,0,0,0
2024-02-19T06:08:00+09:00,7.7,��쓌,15.4,��쓌,15.7,64,0,0,0,0
2024-02-19T06:09:00+09:00,7.6,��쓌,15.4,��쓌,15.7,64.3,0,0,0,0
2024-02-19T06:10:00+09:00,7.6,��쓌,15.4,��쓌,15.8,64.1,0,0,0,0
2024-02-19T06:11:00+09:00,7.3,��,15.4,��쓌,15.7,64.1,0,0,0,0
2024-02-19T06:12:00+09:00,,,,,,,,,,
2024-02-19T06:13:00+09:00,7.2,��,15.4,��쓌,15.8,64.2,0,0,0,0
2024-02-19T06:14:00+09:00,6.7,��,12.8,��쓌,15.7,64.1,0,0,0,0
2024-02-19T06:15:00+09:00,6.5,��,11.7,��쓌,15.7,64.5,0,0,0,0
2024-02-19T06:16:00+09:00,6.4,��,11.7,��쓌,15.8,64.6,0,0,0,0
2024-02-19T06:17:00+09:00,6.2,��,11.7,��쓌,15.8,64.3,0,0,0,0
2024-02-19T06:18:00+09:00,6.2,��,11.7,��쓌,15.8,64.2,0,0,0,0
2024-02-19T06:19:00+09:00,6.2,��,11.7,��쓌,15.8,64.2,0,0,0,0
2024-02-19T06:20:00+09:00,6.1,��,11.7,��쓌,15.7,64.4,0,0,0,0
2024-02-19T06:21:00+09:00,6,��,11.7,��쓌,15.8,64.3,0,0,0,0
2024-02-19T06:22:00+09:00,5.8,��,10.6,��쐼,15.7,64.5,0,0,0,0
2024-02-19T06:23:00+09:00,5.6,��,10.6,��쐼,15.6,64.7,0,0,0,0
2024-02-19T06:24:00+09:00,5.6,��,10.6,��쐼,15.6,64.9,0,0,0,0
2024-02-19T06:25:00+09:00,5.1,��,9.7,��쓌,15.7,64.9,0,0,0,0
2024-02-19T06:26:00+09:00,5.1,��,10.4,��쓌,15.8,64.7,0,0,0,0
2024-02-19T06:27:00+09:00,5.1,��,10.4,��쓌,15.7,64.7,0,0,0,0
2024-02-19T06:28:00+09:00,5.1,��,10.5,��,15.7,64.6,0,0,0,0
2024-02-19T06:29:00+09:00,4.9,��,10.5,��,15.6,64.7,0,0,0,0
2024-02-19T06:30:00+09:00,4.6,��,10.5,��,15.7,64.7,0,0,0,0
2024-02-19T06:31:00+09:00,4.5,��,10.5,��,15.7,64.5,0,0,0,0
2024-02-19T06:32:00+09:00,4.8,��,10.7,�쓌,15.8,64.5,0,0,0,0
2024-02-19T06:33:00+09:00,4.9,��,10.7,�쓌,15.7,64.5,0,0,0,0
2024-02-19T06:34:00+09:00,5,��,10.7,�쓌,15.7,64.8,0,0,0,0
2024-02-19T06:35:00+09:00,5.2,��,10.7,�쓌,15.8,64.7,0,0,0,0
2024-02-19T06:36:00+09:00,5,��,10.7,�쓌,15.7,64.7,0,0,0,0
2024-02-19T06:37:00+09:00,5.1,��,10.7,�쓌,15.6,64.6,0,0,0,0
2024-02-19T06:38:00+09:00,5.1,��,10.7,�쓌,15.6,64.9,0,0,0,0